QPF
0.00 0.00 0.01 0.01 0.00 0.00 0.00 0.01 0.01 0.01 0.00 0.01 0.01 0.02 0.02 0.01 0.01 0.00 0.00 0.01 0.00 0.01 0.01 0.01 0.01 0.01 0.01 0.01 0.01 0.02 0.04 0.03 0.01 0.00 0.00 0.01 0.01 0.03 0.07 0.04 0.00 0.01 0.02
0.00 0.00 0.01 0.00 0.00 0.01 0.01 0.01 0.01 0.00 0.00 0.00 0.01 0.02 0.02 0.01 0.01 0.00 0.00 0.00 0.00 0.01 0.00 0.00 0.01 0.01 0.02 0.02 0.02 0.02 0.03 0.03 0.01 0.01 0.01 0.00 0.02 0.05 0.10 0.04 0.00 0.01 0.02
0.00 0.00 0.01 0.01 0.01 0.01 0.01 0.01 0.00 0.01 0.00 0.01 0.02 0.02 0.01 0.00 0.00 0.00 0.00 0.00 0.00 0.00 0.00 0.01 0.01 0.02 0.02 0.03 0.03 0.01 0.01 0.02 0.01 0.01 0.00 0.00 0.01 0.05 0.05 0.03 0.01 0.02 0.02
0.00 0.00 0.00 0.01 0.02 0.01 0.01 0.01 0.01 0.01 0.01 0.01 0.02 0.03 0.01 0.00 0.00 0.00 0.00 0.00 0.00 0.00 0.00 0.01 0.02 0.02 0.01 0.02 0.02 0.00 0.01 0.01 0.03 0.03 0.00 0.00 0.01 0.04 0.05 0.03 0.03 0.03 0.03
0.00 0.00 0.00 0.01 0.01 0.01 0.02 0.02 0.01 0.01 0.02 0.02 0.02 0.03 0.01 0.01 0.01 0.00 0.00 0.00 0.00 0.00 0.00 0.00 0.01 0.03 0.03 0.02 0.02 0.02 0.03 0.06 0.08 0.02 0.00 0.00 0.01 0.04 0.06 0.05 0.03 0.02 0.03
0.00 0.00 0.01 0.02 0.02 0.02 0.03 0.03 0.01 0.02 0.02 0.02 0.02 0.02 0.01 0.01 0.01 0.01 0.00 0.00 0.00 0.00 0.00 0.00 0.00 0.02 0.02 0.02 0.03 0.03 0.05 0.06 0.03 0.00 0.00 0.00 0.01 0.04 0.04 0.04 0.03 0.02 0.03
0.00 0.00 0.01 0.02 0.02 0.03 0.04 0.04 0.03 0.02 0.01 0.01 0.01 0.02 0.01 0.01 0.01 0.01 0.00 0.01 0.00 0.00 0.00 0.00 0.00 0.00 0.00 0.01 0.01 0.02 0.05 0.03 0.00 0.00 0.00 0.00 0.01 0.02 0.01 0.02 0.03 0.03 0.03
0.00 0.00 0.00 0.02 0.02 0.02 0.04 0.04 0.04 0.02 0.01 0.01 0.01 0.03 0.03 0.01 0.01 0.01 0.00 0.00 0.00 0.00 0.00 0.00 0.00 0.00 0.00 0.00 0.01 0.02 0.04 0.01 0.00 0.00 0.00 0.00 0.02 0.02 0.01 0.02 0.04 0.03 0.03
0.00 0.00 0.00 0.01 0.01 0.01 0.03 0.03 0.04 0.04 0.02 0.01 0.02 0.04 0.04 0.02 0.01 0.01 0.00 0.00 0.00 0.00 0.00 0.00 0.00 0.00 0.00 0.00 0.00 0.00 0.00 0.00 0.00 0.00 0.00 0.01 0.06 0.05 0.04 0.04 0.05 0.04 0.03
0.01 0.00 0.00 0.00 0.00 0.00 0.01 0.02 0.03 0.04 0.03 0.02 0.03 0.04 0.03 0.01 0.01 0.00 0.00 0.00 0.00 0.00 0.00 0.00 0.00 0.00 0.00 0.00 0.00 0.01 0.01 0.00 0.00 0.00 0.00 0.03 0.05 0.05 0.05 0.05 0.04 0.03 0.02
0.01 0.00 0.00 0.00 0.00 0.00 0.00 0.01 0.03 0.05 0.04 0.02 0.03 0.03 0.02 0.00 0.00 0.00 0.00 0.00 0.00 0.00 0.00 0.00 0.00 0.00 0.00 0.00 0.01 0.02 0.00 0.00 0.00 0.00 0.00 0.01 0.01 0.02 0.02 0.02 0.01 0.01 0.01
0.00 0.00 0.00 0.00 0.00 0.00 0.00 0.00 0.00 0.01 0.01 0.01 0.01 0.01 0.00 0.00 0.00 0.00 0.00 0.00 0.00 0.00 0.00 0.00 0.00 0.00 0.00 0.00 0.01 0.01 0.00 0.00 0.00 0.00 0.00 0.00 0.00 0.00 0.00 0.01 0.01 0.00 0.00
0.00 0.00 0.00 0.00 0.00 0.00 0.00 0.00 0.00 0.00 0.00 0.00 0.00 0.01 0.00 0.00 0.00 0.00 0.00 0.00 0.00 0.00 0.00 0.00 0.00 0.00 0.00 0.00 0.00 0.00 0.00 0.00 0.00 0.00 0.00 0.00 0.00 0.00 0.00 0.00 0.00 0.00 0.00
0.00 0.00 0.00 0.00 0.00 0.00 0.00 0.00 0.00 0.00 0.00 0.00 0.00 0.00 0.00 0.00 0.00 0.00 0.00 0.00 0.00 0.00 0.00 0.00 0.00 0.00 0.00 0.00 0.00 0.00 0.00 0.00 0.00 0.00 0.00 0.01 0.01 0.01 0.01 0.00 0.00 0.00 0.00
0.00 0.00 0.00 0.00 0.00 0.00 0.00 0.00 0.00 0.00 0.00 0.00 0.00 0.00 0.00 0.00 0.00 0.00 0.00 0.00 0.00 0.00 0.00 0.00 0.00 0.00 0.00 0.00 0.00 0.00 0.00 0.00 0.00 0.00 0.00 0.03 0.03 0.04 0.04 0.03 0.02 0.01 0.01
0.00 0.00 0.00 0.00 0.00 0.00 0.00 0.00 0.00 0.00 0.00 0.00 0.00 0.00 0.00 0.00 0.00 0.00 0.00 0.00 0.00 0.00 0.00 0.00 0.00 0.00 0.00 0.00 0.00 0.00 0.00 0.00 0.00 0.00 0.00 0.01 0.03 0.06 0.10 0.08 0.06 0.03 0.02
0.00 0.00 0.00 0.00 0.00 0.00 0.00 0.00 0.00 0.00 0.00 0.00 0.00 0.00 0.00 0.00 0.00 0.00 0.00 0.00 0.00 0.00 0.00 0.00 0.00 0.00 0.00 0.00 0.00 0.00 0.00 0.00 0.00 0.00 0.00 0.00 0.02 0.05 0.12 0.14 0.09 0.07 0.04
0.00 0.00 0.00 0.00 0.00 0.00 0.00 0.00 0.00 0.00 0.00 0.00 0.00 0.00 0.00 0.00 0.01 0.01 0.02 0.01 0.01 0.00 0.00 0.00 0.00 0.00 0.00 0.00 0.00 0.00 0.00 0.00 0.00 0.00 0.00 0.01 0.02 0.04 0.10 0.14 0.13 0.10 0.05
0.00 0.00 0.00 0.00 0.00 0.00 0.00 0.00 0.00 0.00 0.00 0.00 0.01 0.01 0.02 0.03 0.05 0.06 0.05 0.07 0.05 0.02 0.01 0.00 0.00 0.00 0.00 0.00 0.00 0.00 0.00 0.00 0.00 0.00 0.00 0.00 0.01 0.02 0.03 0.04 0.05 0.04 0.03
0.00 0.00 0.00 0.00 0.00 0.00 0.00 0.00 0.00 0.01 0.01 0.01 0.02 0.04 0.06 0.10 0.12 0.11 0.09 0.15 0.16 0.09 0.04 0.02 0.01 0.00 0.00 0.00 0.00 0.00 0.00 0.00 0.00 0.00 0.00 0.00 0.00 0.00 0.00 0.00 0.00 0.00 0.01
0.01 0.00 0.00 0.00 0.00 0.00 0.00 0.01 0.01 0.01 0.02 0.02 0.03 0.07 0.11 0.14 0.17 0.18 0.20 0.25 0.26 0.22 0.15 0.10 0.06 0.03 0.01 0.01 0.00 0.00 0.00 0.00 0.00 0.00 0.00 0.00 0.00 0.00 0.00 0.00 0.00 0.00 0.00
0.01 0.01 0.01 0.01 0.01 0.01 0.01 0.03 0.03 0.02 0.02 0.03 0.04 0.04 0.06 0.08 0.10 0.15 0.20 0.22 0.24 0.25 0.23 0.20 0.17 0.11 0.07 0.05 0.03 0.01 0.00 0.00 0.00 0.00 0.00 0.00 0.00 0.00 0.00 0.00 0.00 0.00 0.00
0.02 0.02 0.02 0.03 0.04 0.05 0.06 0.07 0.05 0.04 0.04 0.04 0.04 0.06 0.07 0.08 0.09 0.10 0.12 0.14 0.17 0.22 0.24 0.29 0.33 0.31 0.22 0.15 0.12 0.08 0.04 0.01 0.00 0.00 0.00 0.00 0.00 0.00 0.00 0.00 0.00 0.00 0.00
0.02 0.02 0.05 0.09 0.13 0.16 0.16 0.13 0.08 0.06 0.05 0.06 0.07 0.07 0.07 0.07 0.07 0.07 0.06 0.07 0.09 0.12 0.16 0.24 0.34 0.42 0.39 0.30 0.24 0.18 0.12 0.05 0.01 0.00 0.00 0.00 0.00 0.00 0.00 0.00 0.00 0.00 0.00
0.07 0.09 0.14 0.25 0.36 0.38 0.31 0.20 0.13 0.10 0.08 0.07 0.06 0.06 0.06 0.07 0.06 0.04 0.04 0.03 0.04 0.05 0.07 0.13 0.21 0.36 0.46 0.43 0.35 0.29 0.24 0.14 0.04 0.01 0.00 0.00 0.00 0.00 0.00 0.00 0.00 0.00 0.00
0.28 0.41 0.57 0.70 0.71 0.57 0.40 0.25 0.16 0.12 0.09 0.06 0.06 0.06 0.06 0.06 0.05 0.04 0.03 0.03 0.03 0.03 0.03 0.05 0.11 0.21 0.37 0.45 0.41 0.33 0.31 0.27 0.18 0.10 0.04 0.01 0.00 0.00 0.00 0.00 0.00 0.00 0.00
MSLP
1011.34 1011.06 1010.95 1011.01 1011.22 1011.51 1011.82 1012.09 1012.28 1012.38 1012.43 1012.45 1012.50 1012.61 1012.77 1012.99 1013.22 1013.44 1013.61 1013.70 1013.73 1013.71 1013.67 1013.64 1013.63 1013.66 1013.74 1013.84 1013.97 1014.10 1014.22 1014.33 1014.43 1014.52 1014.59 1014.65 1014.70 1014.73 1014.76 1014.78 1014.80 1014.84 1014.90
1011.18 1010.99 1010.95 1011.06 1011.29 1011.59 1011.90 1012.15 1012.32 1012.42 1012.47 1012.51 1012.58 1012.72 1012.93 1013.18 1013.46 1013.71 1013.90 1014.01 1014.05 1014.03 1013.98 1013.94 1013.91 1013.92 1013.97 1014.05 1014.14 1014.25 1014.34 1014.44 1014.52 1014.60 1014.67 1014.73 1014.77 1014.80 1014.82 1014.83 1014.84 1014.87 1014.92
1010.92 1010.81 1010.84 1011.00 1011.28 1011.62 1011.94 1012.21 1012.39 1012.50 1012.56 1012.62 1012.71 1012.86 1013.09 1013.35 1013.64 1013.89 1014.09 1014.21 1014.25 1014.24 1014.20 1014.16 1014.14 1014.14 1014.18 1014.24 1014.31 1014.39 1014.47 1014.55 1014.63 1014.70 1014.78 1014.84 1014.89 1014.92 1014.94 1014.94 1014.94 1014.96 1015.00
1010.63 1010.59 1010.67 1010.90 1011.23 1011.61 1011.98 1012.28 1012.50 1012.63 1012.71 1012.78 1012.88 1013.04 1013.25 1013.50 1013.77 1014.00 1014.19 1014.30 1014.35 1014.35 1014.33 1014.31 1014.31 1014.33 1014.37 1014.42 1014.48 1014.55 1014.61 1014.68 1014.76 1014.84 1014.93 1015.01 1015.07 1015.11 1015.13 1015.13 1015.13 1015.13 1015.15
1010.39 1010.39 1010.52 1010.81 1011.19 1011.63 1012.04 1012.39 1012.64 1012.80 1012.91 1012.99 1013.08 1013.23 1013.41 1013.64 1013.86 1014.07 1014.22 1014.32 1014.38 1014.40 1014.41 1014.42 1014.46 1014.51 1014.57 1014.63 1014.69 1014.75 1014.80 1014.86 1014.94 1015.03 1015.13 1015.23 1015.31 1015.37 1015.40 1015.40 1015.39 1015.38 1015.38
1010.25 1010.28 1010.45 1010.77 1011.20 1011.67 1012.13 1012.51 1012.79 1012.98 1013.10 1013.19 1013.29 1013.42 1013.58 1013.77 1013.96 1014.13 1014.25 1014.34 1014.39 1014.43 1014.48 1014.54 1014.62 1014.71 1014.81 1014.89 1014.95 1015.00 1015.04 1015.10 1015.16 1015.26 1015.37 1015.48 1015.58 1015.66 1015.70 1015.71 1015.69 1015.66 1015.65
1010.26 1010.29 1010.48 1010.82 1011.27 1011.76 1012.22 1012.62 1012.91 1013.12 1013.26 1013.36 1013.47 1013.60 1013.76 1013.92 1014.09 1014.22 1014.33 1014.40 1014.46 1014.52 1014.60 1014.71 1014.84 1014.97 1015.10 1015.20 1015.26 1015.30 1015.33 1015.36 1015.42 1015.50 1015.61 1015.74 1015.86 1015.95 1016.00 1016.01 1015.98 1015.95 1015.92
1010.38 1010.42 1010.62 1010.96 1011.40 1011.87 1012.32 1012.69 1012.98 1013.18 1013.33 1013.46 1013.60 1013.75 1013.93 1014.10 1014.26 1014.39 1014.48 1014.55 1014.61 1014.69 1014.80 1014.94 1015.11 1015.28 1015.43 1015.54 1015.61 1015.63 1015.64 1015.64 1015.67 1015.74 1015.84 1015.97 1016.09 1016.19 1016.25 1016.26 1016.23 1016.18 1016.14
1010.58 1010.62 1010.82 1011.14 1011.55 1011.98 1012.37 1012.70 1012.96 1013.15 1013.31 1013.47 1013.66 1013.86 1014.08 1014.30 1014.48 1014.62 1014.72 1014.78 1014.85 1014.93 1015.06 1015.22 1015.42 1015.61 1015.78 1015.90 1015.95 1015.96 1015.93 1015.90 1015.90 1015.95 1016.03 1016.15 1016.27 1016.37 1016.43 1016.44 1016.40 1016.35 1016.30
1010.78 1010.84 1011.04 1011.34 1011.70 1012.07 1012.39 1012.66 1012.87 1013.04 1013.21 1013.41 1013.65 1013.93 1014.22 1014.50 1014.72 1014.89 1015.00 1015.07 1015.13 1015.21 1015.34 1015.51 1015.72 1015.93 1016.10 1016.22 1016.27 1016.25 1016.19 1016.13 1016.10 1016.11 1016.18 1016.28 1016.39 1016.48 1016.54 1016.54 1016.50 1016.44 1016.39
1010.93 1011.03 1011.24 1011.52 1011.83 1012.13 1012.38 1012.57 1012.73 1012.88 1013.06 1013.30 1013.61 1013.97 1014.34 1014.68 1014.96 1015.16 1015.28 1015.35 1015.40 1015.48 1015.60 1015.77 1015.98 1016.19 1016.37 1016.48 1016.52 1016.49 1016.42 1016.33 1016.26 1016.25 1016.29 1016.37 1016.46 1016.55 1016.59 1016.59 1016.55 1016.49 1016.44
1010.98 1011.14 1011.37 1011.65 1011.93 1012.17 1012.35 1012.47 1012.58 1012.71 1012.90 1013.18 1013.55 1013.98 1014.42 1014.83 1015.16 1015.38 1015.52 1015.58 1015.62 1015.69 1015.79 1015.96 1016.16 1016.38 1016.56 1016.68 1016.72 1016.69 1016.61 1016.50 1016.42 1016.38 1016.39 1016.45 1016.53 1016.60 1016.63 1016.62 1016.58 1016.52 1016.48
1010.93 1011.15 1011.43 1011.73 1011.99 1012.18 1012.31 1012.39 1012.46 1012.58 1012.78 1013.09 1013.50 1013.98 1014.47 1014.92 1015.28 1015.53 1015.66 1015.72 1015.76 1015.80 1015.90 1016.06 1016.27 1016.50 1016.69 1016.83 1016.89 1016.86 1016.78 1016.68 1016.58 1016.53 1016.53 1016.56 1016.62 1016.67 1016.69 1016.67 1016.62 1016.56 1016.53
1010.77 1011.07 1011.40 1011.72 1011.99 1012.18 1012.29 1012.35 1012.41 1012.52 1012.73 1013.05 1013.49 1013.99 1014.50 1014.96 1015.32 1015.57 1015.70 1015.76 1015.79 1015.84 1015.94 1016.11 1016.33 1016.57 1016.79 1016.96 1017.04 1017.04 1016.97 1016.88 1016.79 1016.72 1016.70 1016.72 1016.75 1016.78 1016.78 1016.75 1016.70 1016.65 1016.62
1010.53 1010.88 1011.26 1011.62 1011.92 1012.13 1012.25 1012.33 1012.40 1012.52 1012.73 1013.06 1013.49 1013.98 1014.48 1014.93 1015.28 1015.51 1015.64 1015.70 1015.74 1015.80 1015.93 1016.12 1016.37 1016.64 1016.90 1017.09 1017.21 1017.24 1017.20 1017.12 1017.03 1016.97 1016.93 1016.92 1016.93 1016.93 1016.92 1016.87 1016.82 1016.77 1016.74
1010.19 1010.58 1011.00 1011.40 1011.74 1012.00 1012.17 1012.29 1012.40 1012.55 1012.78 1013.11 1013.51 1013.96 1014.42 1014.82 1015.14 1015.36 1015.49 1015.57 1015.64 1015.74 1015.90 1016.14 1016.43 1016.74 1017.03 1017.27 1017.41 1017.47 1017.46 1017.40 1017.32 1017.25 1017.20 1017.17 1017.15 1017.13 1017.09 1017.03 1016.96 1016.91 1016.90
1009.76 1010.15 1010.59 1011.03 1011.43 1011.75 1012.01 1012.21 1012.38 1012.58 1012.82 1013.14 1013.50 1013.90 1014.30 1014.65 1014.94 1015.14 1015.28 1015.39 1015.51 1015.67 1015.89 1016.18 1016.52 1016.88 1017.21 1017.47 1017.65 1017.74 1017.75 1017.70 1017.63 1017.55 1017.49 1017.44 1017.39 1017.34 1017.27 1017.20 1017.13 1017.08 1017.06
1009.22 1009.58 1010.02 1010.49 1010.96 1011.37 1011.72 1012.02 1012.28 1012.54 1012.81 1013.12 1013.45 1013.79 1014.12 1014.42 1014.67 1014.86 1015.03 1015.18 1015.37 1015.60 1015.89 1016.25 1016.65 1017.04 1017.40 1017.69 1017.89 1018.00 1018.03 1018.00 1017.93 1017.86 1017.78 1017.71 1017.64 1017.56 1017.47 1017.38 1017.30 1017.25 1017.23
1008.60 1008.90 1009.32 1009.82 1010.34 1010.85 1011.32 1011.73 1012.09 1012.42 1012.73 1013.03 1013.33 1013.62 1013.89 1014.13 1014.35 1014.55 1014.75 1014.96 1015.22 1015.53 1015.90 1016.31 1016.76 1017.18 1017.57 1017.87 1018.09 1018.21 1018.26 1018.25 1018.20 1018.14 1018.06 1017.98 1017.89 1017.79 1017.69 1017.58 1017.48 1017.43 1017.41
1007.93 1008.16 1008.55 1009.06 1009.64 1010.25 1010.83 1011.36 1011.83 1012.23 1012.58 1012.88 1013.15 1013.39 1013.61 1013.82 1014.02 1014.23 1014.46 1014.73 1015.05 1015.43 1015.87 1016.33 1016.81 1017.26 1017.65 1017.96 1018.19 1018.34 1018.41 1018.43 1018.41 1018.37 1018.31 1018.24 1018.15 1018.04 1017.92 1017.79 1017.69 1017.62 1017.60
1007.28 1007.43 1007.79 1008.32 1008.96 1009.64 1010.33 1010.97 1011.53 1012.01 1012.39 1012.70 1012.94 1013.15 1013.33 1013.50 1013.69 1013.90 1014.17 1014.48 1014.86 1015.30 1015.77 1016.26 1016.75 1017.21 1017.60 1017.92 1018.17 1018.34 1018.45 1018.51 1018.54 1018.54 1018.52 1018.48 1018.40 1018.29 1018.17 1018.04 1017.92 1017.84 1017.81
1006.75 1006.84 1007.17 1007.72 1008.40 1009.15 1009.92 1010.64 1011.28 1011.80 1012.22 1012.52 1012.75 1012.92 1013.07 1013.22 1013.39 1013.61 1013.89 1014.24 1014.64 1015.10 1015.59 1016.09 1016.57 1017.01 1017.40 1017.72 1017.98 1018.18 1018.34 1018.47 1018.56 1018.63 1018.67 1018.67 1018.63 1018.55 1018.43 1018.30 1018.17 1018.08 1018.03
1006.44 1006.50 1006.82 1007.37 1008.08 1008.88 1009.69 1010.46 1011.13 1011.69 1012.11 1012.41 1012.61 1012.76 1012.88 1013.00 1013.16 1013.38 1013.66 1014.00 1014.41 1014.85 1015.32 1015.79 1016.25 1016.66 1017.03 1017.35 1017.63 1017.87 1018.09 1018.29 1018.47 1018.62 1018.74 1018.80 1018.82 1018.77 1018.68 1018.55 1018.42 1018.31 1018.24
1006.44 1006.48 1006.81 1007.36 1008.07 1008.88 1009.70 1010.47 1011.14 1011.68 1012.09 1012.37 1012.55 1012.67 1012.77 1012.87 1013.02 1013.22 1013.48 1013.80 1014.17 1014.58 1015.00 1015.42 1015.82 1016.19 1016.53 1016.85 1017.14 1017.42 1017.70 1017.97 1018.24 1018.48 1018.68 1018.83 1018.91 1018.91 1018.85 1018.74 1018.61 1018.49 1018.40
1006.76 1006.82 1007.14 1007.69 1008.38 1009.15 1009.94 1010.66 1011.29 1011.79 1012.15 1012.40 1012.55 1012.65 1012.74 1012.83 1012.96 1013.13 1013.36 1013.65 1013.96 1014.31 1014.66 1015.01 1015.34 1015.66 1015.97 1016.27 1016.57 1016.88 1017.21 1017.55 1017.89 1018.21 1018.49 1018.71 1018.85 1018.91 1018.89 1018.81 1018.69 1018.57 1018.48
1007.38 1007.46 1007.78 1008.30 1008.94 1009.64 1010.34 1010.98 1011.52 1011.95 1012.26 1012.46 1012.59 1012.68 1012.76 1012.84 1012.96 1013.12 1013.31 1013.54 1013.80 1014.07 1014.34 1014.61 1014.88 1015.14 1015.41 1015.68 1015.98 1016.30 1016.65 1017.03 1017.42 1017.79 1018.14 1018.42 1018.62 1018.74 1018.77 1018.73 1018.63 1018.52 1018.43
Thickness
5796 5798 5797 5794 5791 5787 5785 5782 5780 5778 5775 5772 5770 5767 5765 5764 5763 5762 5761 5762 5762 5762 5763 5763 5764 5764 5765 5766 5767 5768 5768 5769 5769 5770 5772 5774 5775 5775 5776 5776 5778 5780 5782
5802 5799 5797 5794 5791 5788 5785 5782 5780 5778 5775 5773 5770 5767 5765 5763 5761 5760 5760 5760 5760 5760 5761 5761 5762 5762 5762 5762 5764 5765 5766 5767 5767 5768 5770 5771 5772 5773 5772 5773 5774 5777 5779
5803 5799 5797 5793 5790 5787 5785 5782 5780 5777 5775 5772 5769 5767 5764 5762 5760 5759 5759 5758 5758 5758 5759 5759 5759 5759 5759 5759 5760 5762 5763 5765 5766 5766 5767 5769 5770 5770 5770 5770 5771 5773 5775
5803 5800 5797 5793 5790 5787 5784 5782 5779 5777 5774 5771 5769 5766 5763 5761 5760 5758 5757 5757 5757 5756 5756 5756 5756 5756 5755 5756 5757 5759 5761 5762 5763 5764 5765 5767 5768 5768 5768 5768 5769 5770 5772
5803 5800 5797 5794 5790 5786 5784 5782 5780 5777 5775 5772 5768 5765 5762 5760 5759 5757 5756 5755 5754 5754 5754 5753 5753 5752 5751 5752 5754 5756 5758 5760 5761 5762 5763 5764 5765 5766 5766 5766 5767 5767 5768
5801 5799 5797 5794 5790 5787 5784 5782 5780 5777 5775 5772 5768 5765 5761 5759 5757 5756 5754 5753 5752 5751 5750 5750 5749 5748 5748 5749 5751 5754 5756 5757 5758 5759 5760 5761 5762 5763 5764 5764 5764 5765 5766
5799 5797 5796 5793 5791 5787 5784 5782 5779 5777 5775 5772 5769 5765 5761 5758 5756 5754 5753 5751 5750 5749 5748 5747 5746 5745 5745 5746 5749 5751 5753 5754 5755 5756 5757 5758 5759 5760 5761 5762 5762 5763 5763
5799 5797 5795 5793 5791 5788 5785 5782 5780 5777 5775 5772 5769 5765 5761 5758 5756 5753 5752 5750 5748 5747 5745 5744 5743 5743 5743 5744 5746 5749 5750 5752 5753 5753 5754 5755 5756 5757 5758 5759 5760 5760 5761
5797 5796 5794 5793 5791 5788 5786 5783 5780 5777 5775 5772 5769 5766 5762 5759 5756 5753 5751 5748 5746 5745 5743 5742 5741 5741 5741 5742 5744 5746 5748 5749 5750 5751 5751 5752 5752 5753 5755 5755 5757 5758 5759
5795 5794 5793 5792 5790 5788 5785 5783 5780 5777 5775 5772 5769 5766 5763 5759 5756 5753 5750 5748 5745 5743 5741 5740 5739 5739 5738 5740 5742 5745 5746 5746 5747 5748 5749 5750 5750 5751 5752 5752 5753 5755 5756
5792 5793 5792 5791 5789 5787 5784 5782 5779 5777 5774 5772 5768 5765 5762 5759 5756 5753 5750 5747 5744 5742 5739 5737 5736 5736 5736 5737 5740 5742 5743 5743 5744 5745 5746 5748 5749 5749 5750 5750 5750 5751 5753
5789 5791 5791 5790 5788 5786 5784 5781 5779 5776 5773 5770 5767 5764 5761 5758 5755 5752 5749 5746 5744 5741 5738 5736 5735 5734 5734 5735 5736 5738 5739 5740 5741 5742 5744 5746 5747 5748 5748 5748 5748 5749 5750
5791 5790 5790 5788 5787 5785 5783 5780 5777 5775 5772 5769 5766 5763 5759 5756 5754 5751 5748 5745 5742 5739 5736 5735 5733 5732 5732 5732 5733 5733 5734 5736 5738 5739 5741 5743 5744 5746 5746 5746 5747 5747 5747
5791 5789 5789 5787 5785 5783 5781 5779 5776 5773 5770 5767 5765 5762 5758 5755 5752 5749 5746 5744 5741 5738 5735 5733 5732 5731 5730 5729 5729 5729 5730 5731 5733 5735 5737 5739 5741 5743 5744 5744 5745 5745 5745
5790 5789 5788 5786 5783 5781 5779 5777 5775 5772 5769 5766 5763 5760 5757 5754 5751 5748 5746 5743 5740 5737 5733 5731 5730 5729 5728 5726 5726 5725 5725 5726 5727 5729 5731 5734 5737 5738 5740 5741 5741 5742 5742
5791 5789 5788 5786 5783 5780 5777 5775 5773 5770 5767 5764 5761 5758 5755 5753 5750 5747 5745 5742 5739 5736 5733 5730 5728 5726 5725 5723 5722 5721 5721 5721 5722 5724 5726 5728 5730 5732 5733 5735 5736 5737 5739
5792 5790 5788 5785 5782 5778 5775 5773 5771 5767 5764 5762 5759 5756 5753 5751 5748 5746 5743 5740 5738 5735 5732 5729 5726 5724 5721 5720 5718 5717 5717 5717 5718 5719 5720 5721 5723 5725 5727 5728 5730 5731 5733
5791 5789 5788 5787 5782 5778 5774 5771 5768 5765 5762 5760 5757 5755 5752 5749 5747 5744 5742 5740 5737 5733 5730 5727 5724 5720 5717 5715 5713 5713 5713 5713 5713 5713 5714 5715 5716 5718 5720 5721 5723 5725 5726
5791 5788 5786 5785 5782 5777 5772 5768 5765 5762 5760 5758 5755 5753 5750 5748 5745 5742 5740 5738 5735 5731 5728 5725 5721 5718 5713 5710 5708 5707 5707 5707 5707 5708 5708 5709 5709 5711 5712 5714 5715 5717 5719
5791 5788 5785 5783 5780 5775 5769 5764 5760 5758 5756 5755 5752 5750 5748 5745 5743 5740 5737 5735 5731 5728 5724 5721 5718 5714 5710 5707 5705 5702 5700 5701 5701 5701 5702 5702 5703 5704 5705 5707 5708 5710 5712
5790 5786 5783 5779 5776 5772 5765 5758 5754 5752 5752 5751 5749 5747 5745 5742 5739 5736 5734 5731 5728 5724 5721 5717 5713 5709 5705 5702 5698 5694 5695 5695 5695 5695 5696 5696 5697 5698 5699 5700 5701 5703 5706
5790 5787 5783 5777 5773 5770 5766 5760 5754 5751 5748 5747 5745 5743 5741 5739 5736 5734 5731 5728 5725 5721 5717 5713 5709 5704 5701 5698 5694 5687 5684 5685 5688 5691 5691 5691 5691 5692 5694 5695 5695 5697 5699
5788 5787 5784 5777 5770 5765 5761 5753 5747 5744 5741 5739 5737 5736 5736 5734 5732 5730 5727 5725 5721 5718 5714 5710 5706 5701 5696 5693 5692 5687 5679 5676 5680 5684 5685 5686 5686 5687 5689 5690 5691 5692 5694
5784 5785 5781 5773 5764 5756 5750 5744 5739 5736 5734 5734 5734 5732 5731 5729 5727 5725 5722 5720 5717 5714 5710 5707 5704 5700 5694 5688 5686 5685 5683 5681 5676 5674 5679 5681 5682 5683 5684 5686 5687 5688 5690
5774 5773 5769 5763 5755 5746 5739 5733 5730 5729 5729 5729 5729 5727 5725 5724 5722 5720 5718 5715 5712 5709 5706 5703 5700 5697 5693 5688 5684 5681 5678 5675 5676 5672 5670 5674 5677 5680 5682 5683 5684 5685 5686
5755 5756 5754 5749 5742 5735 5728 5723 5721 5721 5722 5723 5722 5720 5719 5718 5717 5715 5713 5710 5707 5704 5702 5699 5696 5693 5689 5686 5683 5681 5678 5673 5672 5671 5668 5669 5671 5676 5679 5680 5681 5683 5683